Find Starlink 32255

NORAD ID: 60417 Int'l Des: 2024-141 Owner: SPXS Country: US Constellation: starlink operational
LEOCIRCULAR

リアルタイム位置

3D地球を読み込み中...

Starlink 32255について

説明を読み込み中...

次回通過

Passes for default location (London). Set your location on the main map for personalized predictions.

高度履歴

Loading altitude history...

軌道要素

1 60417U 24141V 26125.79472465 .00001353 00000-0 57813-4 0 9990
2 60417 53.1601 337.3367 0001076 68.9116 291.2000 15.30193643 98324
Epoch: May 5, 2026 • Age: 7 hours

現在のステータス

高度 475.8 km
速度 7.63 km/s
衛星直下点 21.97°N, 115.53°W
打ち上げ日 Aug 10, 2024
運用期間 1.7 years
タイプ internet

技術仕様

分類 Payload
質量 730.00 kg
乾燥質量 700.00 kg
総質量 730.00 kg
長さ 0.30 m
直径 4.10 m
スパン 29.00 m
形状 Box + pan
製造者 SPXS
バスタイプ Starlink V2M
フェーズステータス In Orbit
所有者/国 SPXS/US

Most Searched